Preview of NWS' New Version of Forecast
This preview is not operational and should not be used for support decisions.

Regional Weather Roundup (RWR)

Issued by National Weather Service (NWS)

                            
000
ASUS43 KLSX 251557
RWRMO 

WEATHER SUMMARY FOR MISSOURI
NATIONAL WEATHER SERVICE SPRINGFIELD MO
1100 AM CDT SUN AUG 25 2019

NOTE: "FAIR" INDICATES FEW OR NO CLOUDS BELOW 12,000 FEET WITH NO
       SIGNIFICANT WEATHER AND/OR OBSTRUCTIONS TO VISIBILITY.
       CURRENT SKY AND/OR WEATHER CONDITIONS ARE NOT AVAILABLE FOR
       CHILLICOTHE AND FARMINGTON.

MOZ001>031-035>038-043-044-053-054-251700-
...NORTHERN AND WESTERN MISSOURI...
  
CITY           SKY/WX    TMP DP  RH WIND       PRES   REMARKS
KANSAS CTY INT LGT RAIN  67  66  97 E9        29.90F FOG              
LEE'S SUMMIT   CLOUDY    70  65  84 E9        29.89F                  
ST JOSEPH      RAIN      65  63  93 E12       29.92R FOG              
CHILLICOTHE      N/A     68  63  84 E7        29.97F                  
     
$$
MOZ066>068-077>081-088>096-101>105-251700-
...SOUTHWEST MISSOURI...
  
CITY           SKY/WX    TMP DP  RH WIND       PRES   REMARKS
SPRINGFIELD    CLOUDY    73  68  84 S13       29.94F                  
JOPLIN         RAIN      67  66  97 W9G18     29.94R FOG              
               
$$
MOZ032>034-039>042-045>050-055>058-069>072-251700-
...CENTRAL MISSOURI...  
  
CITY           SKY/WX    TMP DP  RH WIND       PRES   REMARKS
COLUMBIA       NOT AVBL                                               
JEFFERSON CITY CLOUDY    71  65  81 E9        29.96F                  
SEDALIA        CLOUDY    67  66  97 SE8       29.95S                  
WARRENSBURG    CLOUDY    70  64  83 E8        29.91F                  
               
$$
MOZ051-052-059>065-251700-
...EAST CENTRAL MISSOURI...
  
CITY           SKY/WX    TMP DP  RH WIND       PRES   REMARKS
ST LOUIS INTL  PTSUNNY   72  60  66 E7        30.01S                  
                   
$$
MOZ072>076-082>087-097>100-106>115-251700-
...SOUTH CENTRAL AND SOUTHEAST MISSOURI...
  
CITY           SKY/WX    TMP DP  RH WIND       PRES   REMARKS
CAPE GIRARDEAU PTSUNNY   76  66  71 VRB6      29.98F                  
POPLAR BLUFF   CLOUDY    76  68  76 CALM      29.98R                  
WEST PLAINS    CLOUDY    71  67  87 VRB5      30.01S                  
                                       
$$